| time (UTC) | temp F | wind direction | speed MPH | gust MPH | rain 1hr in | rain 24hr in | rain mn in | humidity % | barometer mb |
| 20260504235918 | 79 | 36 | 0.0 | 4.0 | 0.00 | 0.00 | 0.19 | 50 | 1001.3 |
| 20260504234918 | 79 | 191 | 4.0 | 7.0 | 0.00 | 0.00 | 0.19 | 49 | 1001.4 |
| 20260504233918 | 79 | 51 | 5.0 | 11.0 | 0.00 | 0.00 | 0.19 | 49 | 1001.6 |
| 20260504232918 | 80 | 199 | 1.0 | 5.0 | 0.00 | 0.00 | 0.19 | 48 | 1001.5 |
| 20260504231918 | 81 | 153 | 2.0 | 12.0 | 0.00 | 0.00 | 0.19 | 47 | 1001.7 |
| 20260504230918 | 81 | 212 | 0.0 | 6.0 | 0.00 | 0.00 | 0.19 | 47 | 1001.8 |
| 20260504225918 | 82 | 205 | 3.0 | 6.0 | 0.00 | 0.00 | 0.19 | 47 | 1002.0 |
| 20260504224918 | 82 | 5 | 5.0 | 8.0 | 0.00 | 0.00 | 0.19 | 45 | 1002.0 |
| 20260504223918 | 82 | 211 | 2.0 | 14.0 | 0.00 | 0.00 | 0.19 | 47 | 1002.1 |
| 20260504222918 | 80 | 158 | 5.0 | 11.0 | 0.00 | 0.00 | 0.19 | 48 | 1002.2 |
| 20260504221918 | 79 | 354 | 2.0 | 7.0 | 0.00 | 0.00 | 0.19 | 50 | 1002.3 |
| 20260504220918 | 79 | 229 | 0.0 | 10.0 | 0.00 | 0.00 | 0.19 | 51 | 1002.2 |
| 20260504215918 | 79 | 121 | 0.0 | 5.0 | 0.00 | 0.00 | 0.19 | 56 | 1002.1 |
| 20260504214918 | 80 | 150 | 2.0 | 9.0 | 0.00 | 0.00 | 0.19 | 56 | 1002.1 |
| 20260504213918 | 80 | 120 | 3.0 | 7.0 | 0.00 | 0.00 | 0.19 | 55 | 1002.1 |
| 20260504212918 | 80 | 243 | 0.0 | 8.0 | 0.00 | 0.00 | 0.19 | 57 | 1002.2 |
| 20260504211918 | 79 | 125 | 3.0 | 8.0 | 0.00 | 0.00 | 0.19 | 58 | 1002.0 |
| 20260504210917 | 78 | 117 | 2.0 | 5.0 | 0.00 | 0.00 | 0.19 | 61 | 1002.2 |
| 20260504205918 | 78 | 158 | 0.0 | 7.0 | 0.00 | 0.00 | 0.19 | 63 | 1002.4 |
| 20260504204918 | 78 | 152 | 1.0 | 4.0 | 0.00 | 0.00 | 0.19 | 68 | 1002.6 |
| 20260504203918 | 76 | 145 | 1.0 | 7.0 | 0.00 | 0.00 | 0.19 | 70 | 1002.6 |
| 20260504202917 | 74 | 120 | 1.0 | 2.0 | 0.00 | 0.00 | 0.19 | 77 | 1002.9 |
| 20260504201917 | 72 | 114 | 0.0 | 1.0 | 0.00 | 0.00 | 0.19 | 81 | 1002.9 |
| 20260504200917 | 70 | 100 | 0.0 | 1.0 | 0.00 | 0.00 | 0.19 | 82 | 1002.9 |
| 20260504195918 | 67 | 138 | 0.0 | 1.0 | 0.00 | 0.00 | 0.19 | 74 | 1003.2 |
| 20260504194917 | 66 | 142 | 0.0 | 1.0 | 0.00 | 0.00 | 0.19 | 70 | 1003.1 |
| 20260504193917 | 65 | 58 | 0.0 | 1.0 | 0.00 | 0.00 | 0.19 | 69 | 1003.4 |
| 20260504192917 | 64 | 360 | 0.0 | 2.0 | 0.00 | 0.00 | 0.19 | 56 | 1003.8 |
| 20260504191917 | 62 | 43 | 0.0 | 2.0 | 0.00 | 0.00 | 0.19 | 46 | 1003.8 |
| 20260504190917 | 60 | 3 | 0.0 | 2.0 | 0.00 | 0.00 | 0.19 | 50 | 1003.3 |
| 20260504185917 | 60 | 132 | 0.0 | 0.0 | 0.00 | 0.00 | 0.19 | 54 | 1004.2 |
| 20260504184917 | 60 | 226 | 0.0 | 1.0 | 0.00 | 0.00 | 0.19 | 56 | 1004.9 |
| 20260504183917 | 60 | 13 | 0.0 | 1.0 | 0.00 | 0.00 | 0.18 | 59 | 1005.1 |
| 20260504182917 | 60 | 346 | 1.0 | 2.0 | 0.00 | 0.00 | 0.18 | 61 | 1004.7 |
| 20260504181917 | 60 | 128 | 0.0 | 3.0 | 0.00 | 0.00 | 0.17 | 61 | 1004.4 |
| 20260504180917 | 61 | 136 | 0.0 | 0.0 | 0.00 | 0.00 | 0.05 | 59 | 1005.4 |
| 20260504175917 | 61 | 135 | 0.0 | 0.0 | 0.00 | 0.00 | 0.04 | 61 | 1005.2 |
| 20260504174917 | 60 | 135 | 0.0 | 0.0 | 0.00 | 0.00 | 0.04 | 66 | 1004.8 |
| 20260504173917 | 60 | 135 | 0.0 | 1.0 | 0.00 | 0.00 | 0.04 | 67 | 1004.9 |
| 20260504172917 | 60 | 135 | 0.0 | 0.0 | 0.00 | 0.00 | 0.04 | 69 | 1005.2 |
| 20260504171917 | 60 | 136 | 0.0 | 0.0 | 0.00 | 0.00 | 0.04 | 72 | 1005.5 |
| 20260504170917 | 60 | 136 | 0.0 | 1.0 | 0.00 | 0.00 | 0.04 | 75 | 1005.2 |
| 20260504150917 | 68 | 212 | 0.0 | 1.0 | 0.00 | 0.00 | 0.00 | 65 | 1007.2 |
| 20260504140917 | 70 | 139 | 0.0 | 6.0 | 0.00 | 0.00 | 0.00 | 60 | 1006.8 |
| 20260504081917 | 53 | 252 | 0.0 | 0.0 | 0.00 | 0.00 | 0.00 | 81 | 1007.9 |
| 20260504080917 | 53 | 85 | 0.0 | 1.0 | 0.00 | 0.00 | 0.00 | 80 | 1007.9 |
| 20260504045916 | 65 | 211 | 2.0 | 4.0 | 0.00 | 0.00 | 0.00 | 62 | 1007.7 |
| 20260504044916 | 65 | 148 | 0.0 | 4.0 | 0.00 | 0.00 | 0.00 | 61 | 1007.9 |
| 20260504043916 | 65 | 159 | 1.0 | 6.0 | 0.00 | 0.00 | 0.00 | 61 | 1008.3 |
| 20260504042916 | 65 | 101 | 0.0 | 2.0 | 0.00 | 0.00 | 0.00 | 61 | 1008.6 |
| 20260504041916 | 66 | 177 | 0.0 | 4.0 | 0.00 | 0.00 | 0.00 | 60 | 1008.8 |
| 20260504040916 | 66 | 167 | 0.0 | 4.0 | 0.00 | 0.00 | 0.00 | 59 | 1008.8 |
| 20260504035916 | 66 | 316 | 0.0 | 4.0 | 0.00 | 0.00 | 0.00 | 59 | 1008.8 |
| 20260504034916 | 66 | 84 | 1.0 | 1.0 | 0.00 | 0.00 | 0.00 | 59 | 1009.0 |
| 20260504033916 | 66 | 41 | 0.0 | 2.0 | 0.00 | 0.00 | 0.00 | 58 | 1009.3 |
| 20260504032916 | 66 | 152 | 0.0 | 2.0 | 0.00 | 0.00 | 0.00 | 58 | 1009.5 |
| 20260504031916 | 66 | 134 | 0.0 | 2.0 | 0.00 | 0.00 | 0.00 | 59 | 1009.5 |
| 20260504030916 | 66 | 174 | 0.0 | 2.0 | 0.00 | 0.00 | 0.00 | 59 | 1009.5 |
| 20260504025916 | 66 | 122 | 0.0 | 3.0 | 0.00 | 0.00 | 0.00 | 59 | 1009.3 |
| 20260504024916 | 65 | 139 | 1.0 | 4.0 | 0.00 | 0.00 | 0.00 | 60 | 1009.2 |
| 20260504023916 | 64 | 114 | 0.0 | 1.0 | 0.00 | 0.00 | 0.00 | 63 | 1009.2 |
| 20260504022916 | 62 | 101 | 0.0 | 1.0 | 0.00 | 0.00 | 0.00 | 68 | 1009.2 |
| 20260504021916 | 62 | 150 | 0.0 | 0.0 | 0.00 | 0.00 | 0.00 | 69 | 1009.1 |
| 20260504020916 | 63 | 149 | 0.0 | 0.0 | 0.00 | 0.00 | 0.00 | 66 | 1009.0 |
| 20260504015916 | 64 | 149 | 0.0 | 0.0 | 0.00 | 0.00 | 0.00 | 63 | 1008.9 |
| 20260504014916 | 65 | 150 | 0.0 | 1.0 | 0.00 | 0.00 | 0.00 | 61 | 1008.9 |
| 20260504013916 | 66 | 95 | 0.0 | 0.0 | 0.00 | 0.00 | 0.00 | 61 | 1008.8 |
| 20260504012916 | 66 | 148 | 0.0 | 1.0 | 0.00 | 0.00 | 0.00 | 59 | 1008.7 |
| 20260504011916 | 66 | 153 | 0.0 | 1.0 | 0.00 | 0.00 | 0.00 | 60 | 1008.7 |
| 20260504010916 | 66 | 113 | 0.0 | 0.0 | 0.00 | 0.00 | 0.00 | 60 | 1008.6 |
| 20260504005916 | 67 | 120 | 0.0 | 0.0 | 0.00 | 0.00 | 0.00 | 59 | 1008.6 |
| 20260504004916 | 69 | 120 | 0.0 | 0.0 | 0.00 | 0.00 | 0.00 | 55 | 1008.6 |
| 20260504003916 | 71 | 207 | 0.0 | 2.0 | 0.00 | 0.00 | 0.00 | 51 | 1008.6 |
| 20260504002916 | 72 | 115 | 0.0 | 1.0 | 0.00 | 0.00 | 0.00 | 49 | 1008.6 |
| 20260504001916 | 73 | 120 | 0.0 | 3.0 | 0.00 | 0.00 | 0.00 | 45 | 1008.7 |
| 20260504000916 | 74 | 174 | 0.0 | 4.0 | 0.00 | 0.00 | 0.00 | 43 | 1008.6 |